STARLINK-36641, 67589

Orbit data source: Space-Track

STARLINK-36641, 67589 is a payload satellite owned by SpaceX/Seattle (US) in SSO that was launched on Thu, 29 Jan 2026 UTC via an FALCON 9 launch vehicle from the Air Force Western Test Range (AFWTR). Payload-class satellites include a variety of spacecraft equipped with specific instruments for various scientific and technological missions. These include communications satellites like Starlink; space stations such as the ISS; scientific satellites like the Hubble; Earth observation satellites from companies like Planet Labs, Umbra, and HawkEye 360; GPS; miniature CubeSats for education and research; and military/defense satellites.

Loading next visibility...
Identifier
67589, 2026-018A
Orbit
SSO
Country
Flag of USUS
Related business
Manufacturer
SpaceX/Seattle
Mission
Operational Commercial Communications
Bus & Motor
STARLINK V2MO, Unknown motor
Mass
575 kg wet, ~530 kg dry
Launch date (UTC)
2026-01-29 (5 months ago)
Launch vehicle
FALCON 9
Launch site
Air Force Western Test Range (AFWTR)
Object type
Payload
Rocket body
Debris
Shape & HBR
Box + 2 Pan, 17.7 m
Radar Cross Section
36.964 m², Large (>1 m²)

Expand to show TLE details & history
Last TLE update: 1 day ago

TLE from 1 day ago
0 STARLINK-36641
1 67589U 26018A   26170.75340408  .00016148  00000-0  50124-3 0  9994
2 67589  97.2828 235.4833 0000785 107.5418 252.5911 15.33458581 22975
Epoch: 2026-06-19T18:04Z
TLE epoch observation values (Epoch: 2026-06-19T18:04:54.112Z)
Latitude
0.00002°
Longitude
56.27998°
Altitude
468.776 km
Speed
7.632 km/s
True Right ascension
15h 41m 55s
True Declination
0° 00' 00"
Sunlit
Object was in full shadow at epoch
Visualization orbit readout
Latitude
Unknown
Longitude
Unknown
Altitude
Unknown
Speed
Unknown
Apparent Right ascension
Unknown
Apparent Declination
Unknown
Sunlit
N/A
Visualization observer readout
Local Sidereal Time
07:16:19
Azimuth
Unknown
Elevation
Unknown
Doppler factor
Unknown
Orbital elements
Apogee altitude
462.982 km
Perigee altitude
461.908 km
Semi-major axis
6,840.582 km
Eccentricity
0.00008
Inclination
97.2828°
RAAN
235.4833°
Arg. of periapsis
107.5418°
True anomaly
252.58252°
Mean anomaly
252.5911°
Eccentric anomaly
252.58681°
Mean motion
3.83622 °/min
Orbital period
93.84 mins
BSTAR
0.00050124
Loading maneuver chart data...
Computing Atmospheric mass density...
Loading historical data...
Loading historical data...
Loading historical data...
Loading historical data...
Loading historical data...
Loading historical data...
Loading historical data...

Documentation

Showing up to 5 results
|